FW9555 Weather Reports


Display with metric or nautical units.
time (UTC)temp
F
wind
direction
speed
MPH
gust
MPH
rain 1hr
in
rain 24hr
in
rain mn
in
humidity
%
barometer
mb
20260906181352 84 357 2.0 5.0 0.00 0.00 0.00 73 1016.6
20260906180847 84 270 0.0 6.0 0.00 0.00 0.00 71 1016.6
20260906180342 85 300 3.0 4.0 0.00 0.00 0.00 71 1016.5
20260906175839 86 301 2.0 3.0 0.00 0.00 0.00 69 1016.5
20260906175335 85 306 0.0 3.0 0.00 0.00 0.00 73 1016.7
20260906174834 84 307 2.0 5.0 0.00 0.00 0.00 72 1016.6
20260906174333 85 267 4.0 4.0 0.00 0.00 0.00 69 1016.6
20260906173828 85 71 2.0 3.0 0.00 0.00 0.00 75 1016.6
20260906173324 85 285 1.0 2.0 0.00 0.00 0.00 78 1016.5
20260906172823 84 352 0.0 3.0 0.00 0.00 0.00 76 1016.7
20260906172320 83 0 0.0 2.0 0.00 0.00 0.00 76 1016.9
20260906171820 82 299 3.0 4.0 0.00 0.00 0.00 77 1016.9
20260906171315 82 320 5.0 5.0 0.00 0.00 0.00 75 1016.9
20260906170810 82 10 2.0 4.0 0.00 0.00 0.00 75 1017.0
20260906170306 82 310 0.0 3.0 0.00 0.00 0.00 82 1017.0
20260906165802 82 300 2.0 5.0 0.00 0.00 0.00 76 1017.1
20260906165256 82 66 1.0 2.0 0.00 0.00 0.00 80 1017.1
20260906164755 81 14 2.0 3.0 0.00 0.00 0.00 80 1017.1
20260906164250 81 297 0.0 2.0 0.00 0.00 0.00 82 1017.2
20260906163746 80 315 0.0 2.0 0.00 0.00 0.00 85 1017.3
20260906163243 80 210 0.0 2.0 0.00 0.00 0.00 82 1017.3
20260906162739 79 26 1.0 3.0 0.00 0.00 0.00 84 1017.3
20260906162233 79 344 0.0 2.0 0.00 0.00 0.00 86 1017.5
20260906161728 79 66 0.0 2.0 0.00 0.00 0.00 88 1017.7
20260906161227 79 291 0.0 2.0 0.00 0.00 0.00 88 1017.5
20260906160726 79 35 0.0 2.0 0.00 0.00 0.00 91 1017.5
20260906160226 79 286 0.0 0.0 0.00 0.00 0.00 92 1017.3
20260906155723 78 286 0.0 0.0 0.00 0.00 0.00 91 1017.2
20260906155219 78 286 0.0 0.0 0.00 0.00 0.00 91 1017.1
20260906154714 77 286 0.0 0.0 0.00 0.00 0.00 91 1017.3
20260906154209 77 0 0.0 1.0 0.00 0.00 0.00 92 1017.7
20260906153707 77 212 0.0 2.0 0.00 0.00 0.00 93 1017.7
20260906153202 76 6 0.0 3.0 0.00 0.00 0.00 93 1018.2
20260906152656 76 228 7.0 7.0 0.00 0.00 0.00 93 1018.1
20260906152151 76 60 0.0 3.0 0.00 0.00 0.00 93 1018.3
20260906151645 77 346 3.0 3.0 0.00 0.00 0.00 92 1018.3
20260906151142 77 17 3.0 3.0 0.00 0.00 0.00 92 1018.3
20260906150636 77 305 2.0 3.0 0.00 0.00 0.00 91 1018.4
20260906150132 77 285 1.0 2.0 0.00 0.00 0.00 91 1017.8
20260906145631 77 293 2.0 3.0 0.00 0.00 0.00 91 1017.6
20260906145126 77 261 0.0 2.0 0.00 0.00 0.00 92 1017.7
20260906144626 77 261 0.0 0.0 0.00 0.00 0.00 94 1017.4
20260906144121 77 294 0.0 1.0 0.00 0.00 0.00 93 1017.4
20260906143620 77 331 0.0 1.0 0.00 0.00 0.00 95 1017.5
20260906143118 76 276 0.0 0.0 0.00 0.00 0.00 95 1017.5
20260906142616 76 276 0.0 2.0 0.00 0.00 0.00 95 1017.2
20260906142112 77 345 0.0 0.0 0.00 0.00 0.00 97 1017.4
20260906141611 76 345 0.0 0.0 0.00 0.00 0.00 97 1017.0
20260906141107 75 337 0.0 0.0 0.00 0.00 0.00 97 1017.3
20260906140605 75 337 0.0 0.0 0.00 0.00 0.00 98 1017.2
20260906140100 74 337 0.0 0.0 0.00 0.00 0.00 98 1017.2
20260906135557 74 6 0.0 0.0 0.00 0.00 0.00 99 1017.0
20260906135053 74 6 0.0 0.0 0.00 0.00 0.00 99 1017.2
20260906134549 74 6 0.0 0.0 0.00 0.00 0.00 99 1017.3
20260906134043 74 6 0.0 0.0 0.00 0.00 0.00 99 1017.2
20260906133539 73 6 0.0 0.0 0.00 0.00 0.00 99 1017.4
20260906133034 73 81 0.0 1.0 0.00 0.00 0.00 99 1017.1
20260906132529 73 270 0.0 0.0 0.00 0.00 0.00 99 1017.3
20260906132025 73 0 0.0 0.0 0.00 0.00 0.00 99 1017.1
20260906131520 73 0 1.0 1.0 0.00 0.00 0.00 99 1017.0
20260906131016 73 294 0.0 0.0 0.00 0.00 0.00 99 1017.2
20260906130515 73 264 2.0 3.0 0.00 0.00 0.00 99 1016.9
20260906130010 73 285 0.0 3.0 0.00 0.00 0.00 99 1017.2
20260906125507 73 278 0.0 2.0 0.00 0.00 0.00 99 1017.0
20260906125007 72 99 0.0 0.0 0.00 0.00 0.00 99 1016.8
20260906124503 72 99 0.0 1.0 0.00 0.00 0.00 99 1016.9
20260906123957 72 114 0.0 0.0 0.00 0.00 0.00 99 1017.0
20260906123456 72 337 0.0 2.0 0.00 0.00 0.00 99 1017.0
20260906122957 71 328 0.0 2.0 0.00 0.00 0.00 99 1016.9
20260906122451 71 0 0.0 1.0 0.00 0.00 0.00 99 1016.7
20260906121948 71 0 0.0 0.0 0.00 0.00 0.00 99 1016.6
20260906121444 71 352 0.0 0.0 0.00 0.00 0.00 99 1016.3
20260906120940 71 162 0.0 1.0 0.00 0.00 0.00 99 1016.2
20260906120435 71 286 0.0 0.0 0.00 0.00 0.00 99 1016.3
20260906115931 70 354 1.0 1.0 0.00 0.00 0.00 99 1016.4
20260906115427 70 0 0.0 1.0 0.00 0.00 0.00 99 1016.0
20260906114926 69 172 0.0 1.0 0.00 0.00 0.00 99 1016.3
20260906114421 69 90 0.0 0.0 0.00 0.00 0.00 99 1016.3
20260906113917 69 345 0.0 0.0 0.00 0.00 0.00 99 1016.1
20260906113415 69 66 0.0 0.0 0.00 0.00 0.00 99 1016.1
20260906112911 69 66 0.0 0.0 0.00 0.00 0.00 99 1016.0
20260906112407 68 53 0.0 2.0 0.00 0.00 0.00 99 1015.9
20260906111902 68 352 0.0 0.0 0.00 0.00 0.00 99 1016.0
20260906111401 68 352 0.0 0.0 0.00 0.00 0.00 99 1015.9
20260906110856 68 352 0.0 0.0 0.00 0.00 0.00 99 1016.0
20260906110352 68 0 0.0 0.0 0.00 0.00 0.00 99 1016.0
20260906105851 68 0 0.0 0.0 0.00 0.00 0.00 99 1015.9
20260906105347 68 81 0.0 0.0 0.00 0.00 0.00 99 1015.8
20260906104842 68 71 0.0 1.0 0.00 0.00 0.00 99 1015.9
20260906104341 69 345 0.0 1.0 0.00 0.00 0.00 99 1015.9
20260906103839 69 8 0.0 0.0 0.00 0.00 0.00 99 1015.9
20260906103338 69 8 0.0 0.0 0.00 0.00 0.00 99 1015.8
20260906102834 69 8 0.0 0.0 0.00 0.00 0.00 99 1015.7
20260906102333 69 8 0.0 0.0 0.00 0.00 0.00 99 1015.3
20260906101828 69 8 0.0 1.0 0.00 0.00 0.00 99 1015.4
20260906101323 69 353 0.0 0.0 0.00 0.00 0.00 99 1015.4
20260906100819 69 353 0.0 0.0 0.00 0.00 0.00 99 1015.4
20260906100318 69 23 0.0 0.0 0.00 0.00 0.00 99 1015.4
20260906095813 69 23 0.0 0.0 0.00 0.00 0.00 99 1015.4
20260906095309 69 23 0.0 0.0 0.00 0.00 0.00 99 1015.2
20260906094808 69 23 0.0 1.0 0.00 0.00 0.00 99 1015.1
20260906094303 69 90 0.0 0.0 0.00 0.00 0.00 99 1015.3
20260906093759 69 63 0.0 1.0 0.00 0.00 0.00 99 1015.1
20260906093255 69 15 0.0 1.0 0.00 0.00 0.00 99 1015.2
20260906092749 69 15 0.0 0.0 0.00 0.00 0.00 99 1014.9
20260906092244 69 0 0.0 0.0 0.00 0.00 0.00 99 1014.8
20260906091740 69 0 1.0 1.0 0.00 0.00 0.00 99 1015.1
20260906091236 69 0 0.0 0.0 0.00 0.00 0.00 99 1015.0
20260906090732 69 0 0.0 0.0 0.00 0.00 0.00 99 1014.9
20260906090231 69 0 0.0 0.0 0.00 0.00 0.00 99 1014.7
20260906085731 69 81 0.0 0.0 0.00 0.00 0.00 99 1014.9
20260906085230 69 81 0.0 1.0 0.00 0.00 0.00 99 1014.7
20260906084725 69 60 0.0 0.0 0.00 0.00 0.00 99 1015.0
20260906084224 69 60 0.0 0.0 0.00 0.00 0.00 99 1014.8
20260906083720 69 90 0.0 0.0 0.00 0.00 0.00 99 1014.9
20260906083215 69 8 0.0 0.0 0.00 0.00 0.00 99 1014.9
20260906082710 69 90 0.0 0.0 0.00 0.00 0.00 99 1014.6
20260906082205 69 90 0.0 0.0 0.00 0.00 0.00 99 1014.8
20260906081701 69 90 0.0 0.0 0.00 0.00 0.00 99 1014.7
20260906081150 69 90 0.0 2.0 0.00 0.00 0.00 99 1014.4
20260906080647 69 337 0.0 0.0 0.00 0.00 0.00 99 1014.5
20260906080143 69 337 0.0 0.0 0.00 0.00 0.00 99 1014.3
20260906075642 70 0 0.0 0.0 0.00 0.00 0.00 99 1014.3
20260906075136 70 0 0.0 0.0 0.00 0.00 0.00 99 1014.1
20260906074632 70 0 0.0 0.0 0.00 0.00 0.00 99 1014.2
20260906074131 70 352 0.0 0.0 0.00 0.00 0.00 99 1014.3
20260906073626 69 353 0.0 0.0 0.00 0.00 0.00 99 1014.0
20260906073122 70 81 0.0 0.0 0.00 0.00 0.00 99 1014.2
20260906072616 70 81 0.0 0.0 0.00 0.00 0.00 99 1014.1
20260906072112 70 73 0.0 2.0 0.00 0.00 0.00 99 1014.3
20260906071608 70 74 0.0 0.0 0.00 0.00 0.00 99 1014.1
20260906071103 70 74 0.0 0.0 0.00 0.00 0.00 99 1014.2
20260906070600 70 74 0.0 0.0 0.00 0.00 0.00 99 1014.2
20260906070055 71 74 0.0 0.0 0.00 0.00 0.00 99 1014.4
20260906065554 70 0 0.0 1.0 0.00 0.00 0.00 99 1014.7
20260906065050 70 5 1.0 1.0 0.00 0.00 0.00 99 1014.5
20260906064546 70 15 0.0 0.0 0.00 0.00 0.00 99 1014.8
20260906064040 70 15 0.0 0.0 0.00 0.00 0.00 99 1014.6
20260906063536 70 80 0.0 3.0 0.00 0.00 0.00 99 1014.7
20260906063031 70 0 0.0 0.0 0.00 0.00 0.00 99 1014.7
20260906062521 70 90 0.0 0.0 0.00 0.00 0.00 99 1014.8
20260906062015 70 90 0.0 0.0 0.00 0.00 0.00 99 1014.9
20260906061512 70 15 0.0 0.0 0.00 0.00 0.00 99 1015.1
20260906061011 70 0 0.0 0.0 0.00 0.00 0.00 99 1014.8
20260906060508 70 0 0.0 0.0 0.00 0.00 0.00 99 1014.8
20260906060004 70 0 0.0 0.0 0.00 0.00 0.00 99 1015.1
20260906055459 70 0 0.0 0.0 0.00 0.00 0.00 99 1014.9
20260906054955 70 294 0.0 1.0 0.00 0.00 0.00 99 1015.2
20260906054455 70 0 0.0 0.0 0.00 0.00 0.00 99 1015.1
20260906053950 70 23 0.0 0.0 0.00 0.00 0.00 99 1015.3
20260906053447 70 23 0.0 1.0 0.00 0.00 0.00 99 1015.3
20260906052942 70 81 0.0 0.0 0.00 0.00 0.00 99 1015.2
20260906052438 71 81 0.0 0.0 0.00 0.00 0.00 99 1015.2
20260906051935 71 81 0.0 2.0 0.00 0.00 0.00 99 1015.2
20260906051430 70 337 0.0 0.0 0.00 0.00 0.00 99 1015.5
20260906050925 70 23 1.0 1.0 0.00 0.00 0.00 99 1015.4
20260906050425 70 40 0.0 0.0 0.00 0.00 0.00 99 1015.7
20260906045924 70 90 0.0 1.0 0.00 0.00 0.00 99 1015.7
20260906045423 70 352 0.0 0.0 0.00 0.00 0.00 99 1015.7
20260906044919 70 352 0.0 0.0 0.00 0.00 0.00 99 1015.7
20260906044414 70 352 0.0 0.0 0.00 0.00 0.00 99 1015.9
20260906043909 71 352 0.0 0.0 0.00 0.00 0.00 99 1016.0
20260906043406 70 352 0.0 0.0 0.00 0.00 0.00 99 1015.9
20260906042901 70 35 0.0 0.0 0.00 0.00 0.00 99 1015.8
20260906042359 70 35 0.0 0.0 0.00 0.00 0.00 98 1015.7
20260906041855 71 35 0.0 0.0 0.00 0.00 0.00 99 1015.5
20260906041351 70 35 0.0 1.0 0.00 0.00 0.00 98 1015.7
20260906040845 70 90 0.0 2.0 0.00 0.00 0.00 98 1015.8
20260906040340 70 78 0.0 0.0 0.00 0.00 0.00 98 1016.0
20260906035836 71 78 0.0 0.0 0.00 0.00 0.00 98 1016.0
20260906035331 71 78 0.0 0.0 0.00 0.00 0.00 98 1015.9
20260906034826 71 78 0.0 0.0 0.00 0.00 0.00 98 1016.0
20260906034321 71 78 0.0 0.0 0.00 0.00 0.00 98 1016.0
20260906033817 71 78 0.0 0.0 0.00 0.00 0.00 97 1016.1
20260906033316 71 78 0.0 0.0 0.00 0.00 0.00 97 1016.1
20260906032812 71 78 0.0 0.0 0.00 0.00 0.00 97 1015.9
20260906032308 71 60 0.0 1.0 0.00 0.00 0.00 97 1015.9
20260906031803 71 262 0.0 1.0 0.00 0.00 0.00 97 1016.0
20260906031259 71 270 0.0 0.0 0.00 0.00 0.00 96 1016.1
20260906030758 71 270 0.0 0.0 0.00 0.00 0.00 96 1016.2
20260906030254 71 0 0.0 0.0 0.00 0.00 0.00 96 1016.2
20260906025753 71 0 0.0 0.0 0.00 0.00 0.00 96 1015.8
20260906025247 71 0 0.0 0.0 0.00 0.00 0.00 96 1016.0
20260906024746 72 0 0.0 0.0 0.00 0.00 0.00 96 1015.7
20260906024245 72 270 0.0 0.0 0.00 0.00 0.00 95 1015.8
20260906023741 72 270 0.0 0.0 0.00 0.00 0.00 95 1015.8
20260906023236 72 270 0.0 0.0 0.00 0.00 0.00 95 1015.5
20260906022732 72 0 0.0 0.0 0.00 0.00 0.00 94 1015.7
20260906022227 72 0 0.0 0.0 0.00 0.00 0.00 94 1015.4
20260906021723 72 0 0.0 0.0 0.00 0.00 0.00 94 1015.4
20260906021222 72 0 0.0 0.0 0.00 0.00 0.00 94 1015.5
20260906020717 72 0 0.0 0.0 0.00 0.00 0.00 94 1015.5
20260906020211 72 0 0.0 0.0 0.00 0.00 0.00 94 1015.5
20260906015706 72 0 0.0 0.0 0.00 0.00 0.00 94 1015.4
20260906015204 72 0 0.0 0.0 0.00 0.00 0.00 94 1015.2
20260906014659 73 0 0.0 0.0 0.00 0.00 0.00 94 1015.2
20260906014155 73 352 0.0 0.0 0.00 0.00 0.00 94 1015.4
20260906013651 72 352 0.0 0.0 0.00 0.00 0.00 94 1015.3
20260906013146 72 294 0.0 0.0 0.00 0.00 0.00 94 1015.4
20260906012645 72 294 0.0 0.0 0.00 0.00 0.00 93 1015.2
20260906012140 73 294 0.0 0.0 0.00 0.00 0.00 93 1015.2
20260906011636 73 294 0.0 0.0 0.00 0.00 0.00 93 1015.0
20260906011131 73 294 0.0 0.0 0.00 0.00 0.00 92 1015.1
20260906010626 73 294 0.0 0.0 0.00 0.00 0.00 92 1014.9
20260906010122 73 294 0.0 0.0 0.00 0.00 0.00 91 1014.9
20260906005621 74 294 0.0 0.0 0.00 0.00 0.00 91 1014.8
20260906005121 74 294 0.0 0.0 0.00 0.00 0.00 90 1014.9
20260906004620 74 294 0.0 0.0 0.00 0.00 0.00 90 1014.8
20260906004115 74 294 0.0 0.0 0.00 0.00 0.00 89 1014.9
20260906003610 75 294 0.0 0.0 0.00 0.00 0.00 89 1014.9
20260906003106 75 294 0.0 0.0 0.00 0.00 0.00 89 1014.7
20260906002601 75 294 0.0 0.0 0.00 0.00 0.00 88 1014.9
20260906002055 75 294 0.0 0.0 0.00 0.00 0.00 88 1014.9
20260906001551 76 294 0.0 0.0 0.00 0.00 0.00 88 1014.8
20260906001045 76 294 0.0 0.0 0.00 0.00 0.00 87 1014.8
20260906000541 76 286 1.0 1.0 0.00 0.00 0.00 86 1014.7
20260906000035 77 294 0.0 0.0 0.00 0.00 0.00 85 1014.5
20260905235530 77 294 0.0 0.0 0.00 0.00 0.00 84 1014.6
20260905235025 77 294 0.0 0.0 0.00 0.00 0.00 83 1014.4
20260905234521 78 294 0.0 0.0 0.00 0.00 0.00 82 1014.2
20260905234021 78 294 0.0 0.0 0.00 0.00 0.00 81 1014.3
20260905233515 79 294 0.0 0.0 0.00 0.00 0.00 80 1013.8
20260905233015 80 294 0.0 0.0 0.00 0.00 0.00 79 1014.0
20260905232511 80 294 0.0 0.0 0.00 0.00 0.00 78 1014.1
20260905232006 81 294 0.0 0.0 0.00 0.00 0.00 77 1013.9
20260905231501 82 294 0.0 0.0 0.00 0.00 0.00 75 1013.9
20260905230958 82 294 0.0 1.0 0.00 0.00 0.00 73 1013.9
20260905230456 83 270 0.0 0.0 0.00 0.00 0.00 71 1014.0
20260905225954 84 270 0.0 0.0 0.00 0.00 0.00 69 1014.2
20260905225450 84 276 0.0 2.0 0.00 0.00 0.00 67 1014.4
20260905224945 87 282 2.0 2.0 0.00 0.00 0.00 66 1014.4
20260905224440 86 270 0.0 0.0 0.00 0.00 0.00 69 1014.2
20260905223939 85 277 0.0 3.0 0.00 0.00 0.00 65 1014.1
20260905223437 85 345 0.0 2.0 0.00 0.00 0.00 66 1013.9
20260905222932 85 279 1.0 2.0 0.00 0.00 0.00 67 1014.0
20260905222432 86 334 1.0 2.0 0.00 0.00 0.00 67 1013.9
20260905221927 86 286 0.0 2.0 0.00 0.00 0.00 65 1014.1
20260905221424 87 270 0.0 0.0 0.00 0.00 0.00 67 1014.1
20260905220920 84 270 0.0 0.0 0.00 0.00 0.00 68 1014.3
20260905220416 83 328 0.0 0.0 0.00 0.00 0.00 69 1014.1
20260905215915 82 289 2.0 2.0 0.00 0.00 0.00 67 1014.1
20260905215410 83 12 0.0 3.0 0.00 0.00 0.00 67 1014.1
20260905214907 83 300 1.0 2.0 0.00 0.00 0.00 67 1014.2
20260905214402 84 319 2.0 2.0 0.00 0.00 0.00 68 1014.5
20260905213857 82 262 1.0 1.0 0.00 0.00 0.00 73 1014.5
20260905213353 81 325 1.0 3.0 0.00 0.00 0.00 72 1014.7
20260905212848 82 266 3.0 3.0 0.00 0.00 0.00 75 1014.9
20260905212342 81 0 0.0 2.0 0.00 0.00 0.00 76 1014.9
20260905211842 81 60 0.0 0.0 0.00 0.00 0.00 77 1015.0
20260905211338 81 60 0.0 0.0 0.00 0.00 0.00 77 1014.9
20260905210834 80 352 0.0 2.0 0.00 0.00 0.00 76 1014.9
20260905210333 80 12 4.0 5.0 0.00 0.00 0.00 76 1015.1
20260905205832 80 251 2.0 3.0 0.00 0.00 0.00 77 1014.8
20260905205327 80 192 0.0 3.0 0.00 0.00 0.00 78 1014.8
20260905204827 80 61 2.0 3.0 0.00 0.00 0.00 77 1015.0
20260905204323 80 32 2.0 3.0 0.00 0.00 0.00 80 1015.2
20260905203821 80 352 0.0 0.0 0.00 0.00 0.00 82 1014.9
20260905203318 79 16 2.0 2.0 0.00 0.00 0.00 81 1014.6
20260905202813 79 345 0.0 1.0 0.00 0.00 0.00 81 1015.0
20260905202308 79 340 0.0 0.0 0.00 0.00 0.00 81 1014.8
20260905201803 79 320 2.0 3.0 0.00 0.00 0.00 80 1014.8
20260905201259 79 35 0.0 0.0 0.00 0.00 0.00 80 1014.7
20260905200753 79 23 0.0 0.0 0.00 0.00 0.00 79 1015.1
20260905200249 79 23 0.0 2.0 0.00 0.00 0.00 79 1014.9
20260905195746 79 345 0.0 4.0 0.00 0.00 0.00 78 1015.3
20260905195242 80 84 0.0 2.0 0.00 0.00 0.00 77 1015.5
20260905194738 80 0 0.0 0.0 0.00 0.00 0.00 77 1015.5
20260905194236 80 311 0.0 4.0 0.00 0.00 0.00 76 1015.2
20260905193731 80 315 0.0 2.0 0.00 0.00 0.00 76 1014.8
20260905193226 80 320 0.0 0.0 0.00 0.00 0.00 76 1014.9
20260905192721 80 320 0.0 0.0 0.00 0.00 0.00 76 1014.9
20260905192218 80 320 0.0 2.0 0.00 0.00 0.00 74 1014.9
20260905191717 81 279 0.0 1.0 0.00 0.00 0.00 74 1014.9
20260905191215 82 0 1.0 1.0 0.00 0.00 0.00 73 1014.5
20260905190714 82 340 1.0 2.0 0.00 0.00 0.00 73 1014.2
20260905190213 82 300 0.0 2.0 0.00 0.00 0.00 73 1014.0
20260905185712 83 325 0.0 3.0 0.00 0.00 0.00 71 1014.4
20260905185207 83 200 0.0 3.0 0.00 0.00 0.00 71 1014.3
20260905184701 84 343 5.0 5.0 0.00 0.00 0.00 68 1014.8
20260905184200 85 311 0.0 6.0 0.00 0.00 0.00 66 1015.0
20260905183654 89 355 2.0 9.0 0.00 0.00 0.00 58 1015.7
20260905183149 95 301 3.0 5.0 0.00 0.00 0.00 53 1015.0
20260905182649 95 290 4.0 4.0 0.00 0.00 0.00 56 1014.5
20260905182149 95 336 2.0 3.0 0.00 0.00 0.00 54 1014.4